Regional Weather Roundup
Issued by NWS

Home | Current Version | Previous Version | Text Only | Print | Product List | Glossary On
Versions: 1 2 3 4 5 6 7 8 9 10 11 12 13 14 15 16 17 18 19 20 21 22 23 24 25 26 27
000
ASUS42 KTBW 270717
RWRFL
FLORIDA REGIONAL WEATHER ROUNDUP
NATIONAL WEATHER SERVICE TAMPA BAY RUSKIN FL
300 AM EDT SUN MAY 27 2018

NOTE: "FAIR" INDICATES FEW OR NO CLOUDS BELOW 12,000 FEET WITH NO
SIGNIFICANT WEATHER AND/OR OBSTRUCTIONS TO VISIBILITY.

FLZ001>010-012>015-112-114-115-270800-
PANHANDLE FLORIDA

CITY           SKY/WX    TMP DP  RH WIND       PRES   REMARKS
PENSACOLA      FAIR      76  71  85 E3        29.84F
PENSACOLA NAS  FAIR      78  67  68 SE8       29.83F
MILTON NAS     FAIR      70  70 100 NE5       29.85
CRESTVIEW      FAIR      69  68  96 E3        29.87F
DUKE FIELD     FAIR      70  70 100 NE3       29.86F
VALPARAISO     MOCLDY    72  70  93 NE6       29.84F
MARY ESTHER    MOCLDY    72  69  90 NE7       29.83F
TRI COUNTY     FAIR      72  71  97 N5        29.88F
PANAMA CITY    CLOUDY    73  71  93 N7        29.85F
TYNDALL AFB    MOCLDY    74  70  88 NE3       29.85S
APALACHICOLA   MOCLDY    72  72 100 NE6       29.83F

STATION/POSITION SKY/WX   TEMP    WIND        PRES    WAVE   SWELL
                          AIR SEA DIR/SP/G            HT/PER HT/PER
                          (F)     (DEG/KT/KT) (MB)    (FT/S) (FT/S)
30.1N   87.6W              79     130/ 10/ 12 1009.9F   4/ 6   3/ 6
29.2N   88.2W                 82  110/ 14/ 16 1009.2F   4/ 6   2/ 6
28.8N   86.0W              75 79  110/ 16/ 17 1008.3F   6/ 8   3/ 9
PANAMA CITY BEAC              82   20/  5/  7 1011.0F
TOWER C                    75     120/ 11/ 13 1010.2F

$$
FLZ011-016>038-118-127-128-134-139-239-270800-
NORTH FLORIDA

CITY           SKY/WX    TMP DP  RH WIND       PRES   REMARKS
MARIANNA       FAIR      73  72  96 NE7       29.87F
TALLAHASSEE    FAIR      74  70  87 E7        29.86F
PERRY          MOCLDY    75  69  81 E3        29.87F
LIVE OAK       CLOUDY    73  72  94 NE3       29.90S
CROSS CITY     CLOUDY    74  70  86 E6        29.86S
LAKE CITY      CLOUDY    72  68  88 E3        29.89F
GAINESVILLE    CLOUDY    73  69  87 NE6       29.90F
WILLISTON      PTCLDY    75  72  88 E5        29.86F
PALATKA        CLOUDY    72  72 100 NE5       29.88F
MAYPORT NAS    FAIR      74  70  87 CALM      29.90F
JACKSONVILLE   CLOUDY    73  71  93 E6        29.89F
JAX NAS        CLOUDY    76  69  79 SE6       29.90F
JAX CECIL        N/A     73  73 100 CALM      29.89F
FERNANDINA BEA FAIR      74  70  86 SE5       29.90S
ST AUGUSTINE   CLOUDY    75  70  84 SE10      29.90F
PALM COAST     CLOUDY    73  70  92 SE6       29.87F

STATION/POSITION SKY/WX   TEMP    WIND        PRES    WAVE   SWELL
                          AIR SEA DIR/SP/G            HT/PER HT/PER
                          (F)     (DEG/KT/KT) (MB)    (FT/S) (FT/S)
SHELL POINT      NOT AVBL
KEATON BEACH               74      80/  7/  8 1011.3F
CEDAR KEY                  75      90/ 16/ 17 1010.8F
FERNANDINA                    81   70/  1/  3 1013.6F
30.7N   81.3W                 77                N/A     3/ 5
MAYPORT                       80  140/  1/  2 1012.7F
31.4N   80.9W              77 77  130/ 10/ 10 1013.0F   3/ 8   2/ 8
ST AUGUSTINE               77 78  120/ 13/ 15 1012.0F

$$
FLZ040-043>046-052-053-057-058-063-144-270800-
INTERIOR CENTRAL FLORIDA

CITY           SKY/WX    TMP DP  RH WIND       PRES   REMARKS
OCALA          LGT RAIN  72  69  90 VRB5      29.86F
LEESBURG       CLOUDY    72  71  97 E7        29.86F
SANFORD        MOCLDY    73  70  90 E8        29.85F
ORLANDO EXEC   FAIR      73  71  93 E8        29.84F
ORLANDO INTL   CLOUDY    72  71  97 E8        29.84F
KISSIMMEE      CLOUDY    73  71  93 E8        29.84F
WINTER HAVEN   CLOUDY    72  70  93 E10       29.83F
LAKELAND       CLOUDY    72  70  94 E12G18    29.82
BARTOW         CLOUDY    72  72 100 E9        29.81F
SEBRING        CLOUDY    74  71  89 E7        29.80F
OKEECHOBEE     HVY RAIN  72  72 100 E5        29.80F

$$
FLZ041-047-054-059-064-141-147-270800-
EAST CENTRAL FLORIDA

CITY           SKY/WX    TMP DP  RH WIND       PRES   REMARKS
DAYTONA BEACH  LGT RAIN  75  72  90 VRB5      29.87F
DELAND         LGT RAIN  72  70  94 E6        29.86F
JFK SPACE CTR  CLOUDY    76  71  83 SE7       29.84F
CAPE CANAVERAL MOCLDY    77  72  83 SE12      29.83F
PATRICK AFB    FAIR      77  75  93 SE21      29.83F
MELBOURNE      CLOUDY    78  71  79 SE13G22   29.83F
VERO BEACH     MOCLDY    76  73  91 SE13      29.82F
FT PIERCE      LGT RAIN  76  74  93 SE14      29.81F
STUART         CLOUDY    77  73  88 SE10      29.82F

STATION/POSITION SKY/WX   TEMP    WIND        PRES    WAVE   SWELL
                          AIR SEA DIR/SP/G            HT/PER HT/PER
                          (F)     (DEG/KT/KT) (MB)    (FT/S) (FT/S)
28.5N   80.2W              78 77  130/ 17/ 23 1011.1F   6/ 6
28.9N   78.5W              77 78  130/ 14/ 16 1012.9F   4/ 6   2/ 8
TRIDENT PIER                  81  120/ 11/ 16 1012.1F
28.4N   80.5W                 78                N/A     5/ 6
27.5N   80.2W                 75                N/A     6/ 6

$$
FLZ050-056-061-142-242-148-248-149-249-151-251-155-255-
160-260-270800-
WEST CENTRAL FLORIDA

CITY           SKY/WX    TMP DP  RH WIND       PRES   REMARKS
CRYSTAL RIVER  DRIZZLE   72  68  88 E6        29.84F
INVERNESS      DRIZZLE   72  72 100 E3        29.85F
BROOKSVILLE    CLOUDY    71  68  90 E8        29.83F
CLEARWATER AIR DRIZZLE   70  70 100 E6        29.78F
ST PETE CLEARW MOCLDY    72  72 100 E13       29.78F
TAMPA INTL     CLOUDY    73  69  87 VRB6      29.79F
TAMPA EXEC     MOCLDY    72  70  94 E6        29.81F
MACDILL AFB    FAIR      72  70  94 E15       29.77F
PETER O KNIGHT MOCLDY   N/A N/A N/A E10       29.79F
ST PETERSBURG  MOCLDY    74  72  93 E21       29.77F
SARASOTA       MOCLDY    72  70  93 E13       29.74F
VENICE         CLOUDY    73  73 100 E14       29.74F

STATION/POSITION SKY/WX   TEMP    WIND        PRES    WAVE   SWELL
                          AIR SEA DIR/SP/G            HT/PER HT/PER
                          (F)     (DEG/KT/KT) (MB)    (FT/S) (FT/S)
27.3N   84.2W                 78                N/A     7/ 7
CLEARWATER BEACH              81   70/ 10/ 15 1008.7F
MIDDLE TAMPA BAY                  100/ 17/ 19 1008.2F
VENICE                     73 79   80/ 11/ 15 1006.7F

$$
FLZ066-069-070-075>078-162-262-165-265-270800-
SOUTHWEST FLORIDA AND KEYS

CITY           SKY/WX    TMP DP  RH WIND       PRES   REMARKS
PUNTA GORDA    CLOUDY    74  71  91 E13       29.75F
FT MYERS       LGT RAIN  75  73  93 E14       29.72F
SOUTHWEST INTL LGT RAIN  74  74 100 E13       29.74F
NAPLES         RAIN      74  74 100 E14       29.70F FOG
MARCO ISLAND   LGT RAIN  74  73  97 SE15      29.73F
IMMOKALEE      CLOUDY    73  73 100 SE12G18   29.77F
MARATHON       LGT RAIN  78  74  87 SE20G31   29.73F
KEY WEST NAS   CLOUDY    76  75  97 SE28G35   29.69F
KEY WEST INTL  MOCLDY    78  77  96 SE29G36   29.69F

STATION/POSITION SKY/WX   TEMP    WIND        PRES    WAVE   SWELL
                          AIR SEA DIR/SP/G            HT/PER HT/PER
                          (F)     (DEG/KT/KT) (MB)    (FT/S) (FT/S)
NAPLES                        79              1005.8F
26.0N   85.6W              78 83   50/ 14/ 17 1004.3
DRY TORTUGAS               80     170/ 28/ 33 1003.0F
SAND KEY                   78                 1004.9F
SOMBRERO KEY               78     110/ 27/ 31 1006.2F
LONG KEY                   77 78  130/ 24/ 29 1007.1F
MOLASSES REEF              77 79  150/ 32/ 36 1008.1F

$$
FLZ067-068-071>074-168-172>174-270800-
SOUTHEAST FLORIDA

CITY           SKY/WX    TMP DP  RH WIND       PRES   REMARKS
W PALM BEACH   LGT RAIN  77  75  93 SE26G32   29.80F
FT LAUDER-EXEC LGT RAIN  76  75  97 SE15G28   29.80F
FT LAUDERDALE  CLOUDY    75  74  96 SE22G32   29.79F
POMPANO BEACH  LGT RAIN  76  72  87 SE17G35   29.80S FOG
PEMBROKE PINES LGT RAIN  76  72  87 SE15G24   29.81F
OPA LOCKA      LGT RAIN  75  73  93 SE18      29.80F
MIAMI          LGT RAIN  74  74 100 SE13G24   29.79F
WEST KENDALL   LGT RAIN  76  72  87 SE14      29.79F
HOMESTEAD      LGT RAIN  76  73  90 SE20G28   29.78F

STATION/POSITION SKY/WX   TEMP    WIND        PRES    WAVE   SWELL
                          AIR SEA DIR/SP/G            HT/PER HT/PER
                          (F)     (DEG/KT/KT) (MB)    (FT/S) (FT/S)
PORT EVERGLADES            76     140/ 21/ 28 1009.0
VIRGINIA KEY                  79  110/ 12/ 16 1008.6F
LAKE WORTH                    77  160/ 26/ 31 1009.9F
FOWEY ROCKS                77 78  140/ 34/ 38 1008.9F
SETTLEMENT POINT           78     130/ 11/ 14 1010.5F

$$





USA.gov is the U.S. government's official web portal to all federal, state and local government web resources and services.